Location: Bouchavesnes-Bergen
(49.9859°N, 2.9203°E)
Time: 14:28:16
(UTC+00:00)

NOAA 16 DEB - Pass Details

Date: 03 October 2021
Orbit: 798 x 841 km, 98.8° (Epoch: 25 October)

Event Time Altitude Azimuth Distance (km) Brightness Sun altitude
Exits shadow 20:47:33 10° 28° (NNE) 2,376 ? -32.1°
Drops below altitude 10° 20:47:40 10° 26° (NNE) 2,393 ? -32.1°
Sets 20:51:29 0° 358° (N) 3,319 ? -32.6°
